World > North America > United States > Massachusetts

Boston, Massachusetts Regional Weather

Lat: 42.32N, Lon: 71.07W
Wx Zone: MAZ015
Feedback

Boston, MA Regional Weather

Expires:201908200000;;488423
ASUS41 KOKX 192314
RWROKX

Regional Weather Roundup
National Weather Service New York NY
700 PM EDT MON AUG 19 2019

Note: "FAIR" indicates few or no clouds below 12,000 feet with no
significant weather and/or obstructions to visibility.


CTZ002-004>006-009-010-012-RIZ004-006-007-MAZ004-011-015-200000-
Southern New England

 In CT
  
CITY           SKY/WX    TMP DP  RH WIND       PRES   REMARKS
Bradley Intl   MOCLDY    83  69  62 S10       29.94R                  
Hartford       FAIR      82  69  64 S12       29.94R                  
Danbury        FAIR      79  69  71 VRB5      29.99R                  
Wtrbury/Oxford FAIR      76  70  82 S5        30.01R                  
Norwalk Harbor   N/A     75 N/A N/A SW9         N/A                   
Bridgeport     FAIR      77  70  79 S5        29.97S                  
Meriden        FAIR      76  68  76 S8        29.97R                  
New Haven      FAIR      79  70  74 CALM      29.98R                  
Chester        NOT AVBL                                               
Groton         FAIR      77  70  79 S6        29.95S                  
Willimantic    FAIR      75  71  87 CALM      29.98F                  

 In RI
  
CITY           SKY/WX    TMP DP  RH WIND       PRES   REMARKS
Providence     TSTM      72  69  90 S12       30.00R VSB 1            
Block Island   MOCLDY   N/A N/A N/A W13       30.00R                  
Westerly       LGT RAIN  78  76  93 SW9G16    29.99R FOG              
 
In MA
  
CITY           SKY/WX    TMP DP  RH WIND       PRES   REMARKS
Boston         MOCLDY    81  66  60 W16G24    29.91R                  
Worcester      FAIR      74  69  85 S14       29.98R                  
Westfield      MOCLDY    86  68  54 W5        29.94R                  
Provincetown   FAIR      76  73  91 SW14      29.92R                  
Nantucket      FAIR      74  72  93 SW8       29.96R                  
$$


SKY/WX - Weather  TMP - Temperature  DP - Dew Point  RH - Relative Humidity
WIND - Wind Direction/Speed PRES - Barometric Pressure VSB - Visibility
WCI - Wind Chill Index E13G22 Wind - East Wind 13 mph/Gusts of 22 mph